Location: Branche des Alpilles
(43.6087°N, 4.6976°E)
Time: 04:29:50
(UTC+00:00)

Cosmos 2369 Rocket - Pass Details

Date: 30 November 2020
Orbit: 829 x 852 km, 71.0° (Epoch: 24 January)

Event Time Altitude Azimuth Distance (km) Brightness Sun altitude
Rises 18:06:26 0° 332° (NNW) 3,421 5.6 -21.2°
Reaches altitude 10° 18:08:54 10° 331° (NNW) 2,479 4.9 -21.7°
Maximum altitude 18:14:34 70° 249° (WSW) 897 2.4 -22.7°
Drops below altitude 10° 18:20:08 10° 166° (SSE) 2,447 4.5 -23.7°
Sets 18:22:34 0° 164° (SSE) 3,374 5.3 -24.1°
